Regional Weather Roundup
Issued by NWS

Home | Current Version | Previous Version | Graphics & Text | Print | Product List | Glossary On
Versions: 1 2 3 4 5 6 7 8 9 10 11 12 13 14 15 16 17 18 19 20 21 22 23 24 25 26 27 28 29 30 31 32 33 34 35 36 37 38 39 40 41 42 43 44 45 46 47 48 49 50
000
ASUS43 KFSD 032310
RWRSD

WEATHER ROUNDUP FOR SOUTH DAKOTA
NATIONAL WEATHER SERVICE SIOUX FALLS SD
500 PM CST SAT DEC 03 2016

NOTE: "FAIR" INDICATES FEW OR NO CLOUDS BELOW 12,000 FEET WITH NO
SIGNIFICANT WEATHER AND/OR OBSTRUCTIONS TO VISIBILITY.


SDZ001>005-009-010-012>017-040000-
NORTHWEST AND NORTH CENTRAL SOUTH DAKOTA

CITY           SKY/WX    TMP DP  RH WIND       PRES   REMARKS
BUFFALO          N/A     35  27  72 W10       29.77S WCI  27
FAITH            N/A     30  26  85 SW9       29.86F WCI  22
MOBRIDGE       CLEAR     32  26  78 SW5       29.85F WCI  27
$$

SDZ012>016-024>037-041>051-057-063-072>074-040000-
SOUTHWEST AND SOUTH CENTRAL SOUTH DAKOTA

CITY           SKY/WX    TMP DP  RH WIND       PRES   REMARKS
RAPID CTY ARPT CLOUDY    39  22  50 CALM      29.90R
PIERRE         CLEAR     35  26  69 W5        29.90R
CUSTER         CLOUDY    30  19  63 W13G22    29.87S WCI  20
ELLSWORTH AFB  CLOUDY    39  24  55 W5        29.89R
PHILIP         MOCLDY    34  24  67 CALM      29.92R
PINE RIDGE     MOCLDY    33  21  61 SW5       29.93R WCI  29
SPEARFISH      FAIR      36  25  64 W18G25    29.89R
WINNER         FAIR      39  24  55 CALM      29.91S
$$

SDZ004>011-016>023-039-040-040000-
NORTHEAST SOUTH DAKOTA

CITY           SKY/WX    TMP DP  RH WIND       PRES   REMARKS
ABERDEEN       CLOUDY    34  32  92 S18G26    29.97F WCI  23
WATERTOWN      CLOUDY    32  31  96 S14       30.00F WCI  22
BROOKINGS      LGT RAIN  33  31  92 S17       30.04F WCI  22
SISSETON         N/A     33  31  92 S14       30.02F WCI  23
$$

SDZ017-020-022-023-036>040-048>070-040000-
SOUTHEAST SOUTH DAKOTA

CITY           SKY/WX    TMP DP  RH WIND       PRES   REMARKS
SIOUX FALLS    FLURRIES  35  34  96 S15G22    30.08F WCI  25
HURON          CLEAR     34  32  92 S15G24    29.98F WCI  24
CHAMBERLAIN    CLEAR     37  33  88 CALM      29.92F
MITCHELL       CLEAR     35  33  92 S17       30.00F WCI  25
YANKTON        CLOUDY    36  30  80 SE15      30.08S
$$

ABBREVIATIONS USED IN REMARKS
   TC - TEMPERATURE IN CELSIUS
  WCI - WIND CHILL INDEX
   HX - HEAT INDEX
  VSB - VISIBILITY




USA.gov is the U.S. government's official web portal to all federal, state and local government web resources and services.